History for Miami, FL

Saturday, February 23, 2013 — View Current Conditions

Jump to Data:

Date:
Airport Code:
Recently Viewed Airport Codes: KMIA
Daily Summary
  Actual Average Record
Temperature
Mean Temperature 79°F 71°F  
Max Temperature 84°F 79°F 89°F (1991)
Min Temperature 73°F 63°F 39°F (1978)
Degree Days
Heating Degree Days 0 1  
Month to date heating degree days 16 23  
Since 1 July heating degree days 36 113  
Cooling Degree Days 14 7  
Month to date cooling degree days 155 136  
Year to date cooling degree days 424 287  
Growing Degree Days 28 (Base 50)    
Moisture
Dew Point 70°F    
Average Humidity 79    
Maximum Humidity 93    
Minimum Humidity 65    
Precipitation
Precipitation 0.00 in 0.08 in 1.96 in (2002)
Month to date precipitation 1.74 1.83  
Year to date precipitation 2.28 3.45  
Snow
Snow 0.00 in in in ()
Month to date snowfall 0.0  
Since 1 July snowfall 0.0  
Snow Depth 0.00 in    
Sea Level Pressure
Sea Level Pressure 30.00 in    
Wind
Wind Speed 9 mph (SSE)    
Max Wind Speed 17 mph    
Max Gust Speed 25 mph    
Visibility 10 miles    
Events      
T = Trace of Precipitation, MM = Missing Value Source: NWS Daily Summary

Show full METARS

(help) - Comma Delimited File

Hourly Observations

Time(EST) Temperature Dew Point Humidity Sea Level Pressure Visibility Wind Direction Wind Speed Gust Speed Precipitation Events Conditions
12:15 AM 73.4°F 69.8°F 88% 30.06 in 10.0 miles ESE 12.7 mph - N/A   Scattered Clouds
12:53 AM 73.9°F 70.0°F 87% 30.05 in 10.0 miles ESE 6.9 mph - N/A   Partly Cloudy
1:37 AM 73.4°F 69.8°F 88% 30.03 in 10.0 miles ESE 10.4 mph - N/A   Mostly Cloudy
1:53 AM 73.9°F 70.0°F 87% 30.03 in 10.0 miles SE 9.2 mph - N/A   Mostly Cloudy
2:15 AM 73.4°F 69.8°F 88% 30.03 in 10.0 miles SE 8.1 mph - N/A   Mostly Cloudy
2:42 AM 73.4°F 69.8°F 88% 30.02 in 10.0 miles SE 10.4 mph - N/A   Scattered Clouds
2:53 AM 73.9°F 69.1°F 85% 30.02 in 10.0 miles SE 11.5 mph 17.3 mph N/A   Scattered Clouds
3:53 AM 73.9°F 69.1°F 85% 30.00 in 10.0 miles SSE 9.2 mph - N/A   Partly Cloudy
4:53 AM 73.9°F 69.1°F 85% 30.00 in 10.0 miles SSE 8.1 mph - N/A   Partly Cloudy
5:53 AM 73.9°F 68.0°F 82% 30.01 in 10.0 miles SE 9.2 mph - N/A   Partly Cloudy
6:53 AM 73.9°F 68.0°F 82% 30.01 in 10.0 miles SE 6.9 mph - N/A   Partly Cloudy
7:53 AM 75.0°F 69.1°F 82% 30.02 in 10.0 miles SSE 6.9 mph - N/A   Partly Cloudy
8:53 AM 78.1°F 70.0°F 76% 30.04 in 10.0 miles SE 10.4 mph 20.7 mph N/A   Scattered Clouds
9:53 AM 79.0°F 69.1°F 72% 30.05 in 10.0 miles South 10.4 mph 19.6 mph N/A   Mostly Cloudy
10:53 AM 81.0°F 69.1°F 67% 30.05 in 10.0 miles SSE 9.2 mph 20.7 mph N/A   Mostly Cloudy
11:53 AM 82.0°F 69.1°F 65% 30.03 in 10.0 miles South 12.7 mph 19.6 mph N/A   Mostly Cloudy
12:53 PM 82.0°F 70.0°F 67% 30.00 in 10.0 miles SSE 12.7 mph 21.9 mph N/A   Mostly Cloudy
1:53 PM 82.9°F 70.0°F 65% 29.98 in 10.0 miles SSE 15.0 mph 23.0 mph N/A   Mostly Cloudy
2:53 PM 82.0°F 70.0°F 67% 29.96 in 10.0 miles South 13.8 mph 19.6 mph N/A   Mostly Cloudy
3:53 PM 81.0°F 70.0°F 69% 29.95 in 10.0 miles SSE 15.0 mph - N/A   Mostly Cloudy
4:53 PM 81.0°F 71.1°F 72% 29.95 in 10.0 miles South 11.5 mph 21.9 mph N/A   Scattered Clouds
5:53 PM 79.0°F 71.1°F 77% 29.95 in 10.0 miles South 9.2 mph 18.4 mph N/A   Scattered Clouds
6:53 PM 77.0°F 71.1°F 82% 29.96 in 10.0 miles South 8.1 mph - N/A   Scattered Clouds
7:53 PM 77.0°F 72.0°F 84% 29.98 in 10.0 miles South 8.1 mph - N/A   Scattered Clouds
8:53 PM 75.0°F 72.0°F 90% 29.99 in 10.0 miles South 3.5 mph - N/A   Partly Cloudy
9:53 PM 75.0°F 72.0°F 90% 29.99 in 10.0 miles Variable 3.5 mph - N/A   Scattered Clouds
10:53 PM 73.9°F 71.1°F 91% 29.99 in 10.0 miles Variable 3.5 mph - N/A   Scattered Clouds
11:53 PM 73.9°F 72.0°F 93% 29.99 in 10.0 miles SSW 3.5 mph - N/A   Scattered Clouds